www.pogodaiklimat.ru

Погода и климат >> Архив погоды >> Египет >> Рас-Седр


ПОГОДА в Рас-Седре

  • Прогноз погоды в Рас-Седре
  • Монитор погоды в Рас-Седре

АРХИВ ПОГОДЫ в Рас-Седре

Время (UTC), дата Ветер
(напр.,м/с)
 
Видим.   Явления Облачность Т
(С)
Тd
(С)
f
(%)
Тe
(С)
Тes
(С)
Комфортность P
(гПа)
Po
(гПа)
Тmin
(С)
Tmax
(С)
R
(мм)
R24
(мм)
S
(см)
18 10.07 СЗ 3 10 км ясно +34.0 +18.3 39 +38 +38 очень
душно
1005.0 1003.2 +38.9
21 10.07 С 3 10 км ясно +31.0 +21.1 56 +39 +39 очень
душно
1006.0 1004.2
00 11.07 СЗ 3 10 км ясно +27.7 +20.6 65 +34 +34 очень
душно
1007.0 1005.2
03 11.07 СЗ 2 10 км ясно +25.5 +21.5 79 +33 +33 очень
душно
1007.0 1005.2
06 11.07 СЗ 3 10 км ясно +28.4 +22.2 69 +37 +45 очень
душно
1007.0 1005.2 +25.5
09 11.07 СЗ 4 10 км ясно +32.3 +19.7 47 +38 +52 опасность
солнечного
удара
1006.0 1004.2
12 11.07 З 3 10 км ясно +36.7 +17.7 33 +40 +54 опасность
солнечного
удара
1005.0 1003.2
15 11.07 СЗ 4 10 км ясно +39.4 +8.4 15 +37 +39 очень
жарко
1003.0 1001.2
18 11.07 СЗ 2 10 км ясно +35.4 +15.3 30 +37 +37 очень
душно
1006.0 1004.2 +39.6
21 11.07 СЗ 2 10 км ясно +32.7 +18.8 44 +38 +38 очень
душно
1008.0 1006.2
00 12.07 СЗ 2 10 км ясно +30.1 +24.1 70 +42 +42 опасность
перегрева
1009.0 1007.2
03 12.07 С 2 10 км ясно +27.7 +24.1 81 +39 +39 очень
душно
1010.0 1008.2
06 12.07 СЗ 1 10 км ясно +31.2 +23.0 62 +41 +51 опасность
перегрева
1010.0 1008.2 +27.4
09 12.07 З 2 10 км ясно +35.6 +14.5 28 +37 +57 опасность
солнечного
удара
1009.0 1007.2
12 12.07 СЗ 3 10 км ясно +40.5 +5.8 12 +38 +51 опасность
солнечного
удара
1007.0 1005.2
15 12.07 СЗ 3 10 км ясно +31.5 +13.1 33 +33 +35 жарко 1006.0 1004.2
18 12.07 С 4 10 км ясно +35.0 +21.0 44 +42 +42 опасность
перегрева
1009.0 1007.2 +42.7
21 12.07 СЗ 3 10 км ясно +30.8 +21.4 57 +39 +39 очень
душно
1011.0 1009.2
00 13.07 С 3 10 км ясно +28.5 +19.5 58 +34 +34 очень
душно
1011.0 1009.2
03 13.07 С 2 10 км ясно +26.2 +21.3 74 +33 +33 очень
душно
1011.0 1009.2
06 13.07 СЗ 4 10 км ясно +29.2 +18.0 51 +34 +40 очень
душно
1011.0 1009.2 +26.2
09 13.07 СЗ 3 10 км ясно +32.6 +13.4 31 +34 +51 опасность
солнечного
удара
1009.0 1007.2
12 13.07 СЗ 3 10 км ясно +36.9 +13.8 25 +37 +51 опасность
солнечного
удара
1008.0 1008.0
15 13.07 С 5 10 км ясно +36.8 +13.5 25 +37 +39 очень
жарко
1007.0 1005.2
18 13.07 С 3 10 км ясно +32.1 +16.0 38 +35 +35 очень
душно
1010.0 1008.2 +38.0
21 13.07 С 4 10 км ясно +28.5 +18.5 55 +34 +34 очень
душно
1011.0 1009.2
00 14.07 С 3 10 км ясно +26.4 +17.7 59 +31 +31 душно 1011.0 1009.2
03 14.07 СЗ 3 10 км ясно +24.6 +17.4 64 +29 +29 душно 1011.0 1009.1
06 14.07 СЗ 4 10 км ясно +26.5 +18.8 63 +32 +38 очень
душно
1010.0 1008.2 +24.4
09 14.07 СЗ 5 10 км ясно +29.4 +18.4 52 +34 +45 очень
душно
1009.0 1007.2
12 14.07 З 6 10 км ясно +33.2 +17.4 39 +37 +44 очень
душно
1007.0 1005.2
15 14.07 СЗ 5 10 км ясно +35.4 +13.8 27 +36 +37 очень
жарко
1006.0 1004.2
18 14.07 С 4 10 км ясно +32.2 +14.7 35 +34 +34 душно 1008.0 1006.2 +35.7
21 14.07 СЗ 3 10 км ясно +28.7 +16.1 46 +32 +32 душно 1009.0 1007.2
00 15.07 СЗ 2 10 км ясно +26.8 +18.4 60 +32 +32 очень
душно
1009.0 1007.2
03 15.07 С 2 10 км ясно +25.5 +20.0 72 +31 +31 очень
душно
1009.0 1007.2
06 15.07 С 3 10 км ясно +28.3 +18.7 56 +33 +41 очень
душно
1010.0 1008.2 +25.2
09 15.07 З 4 10 км ясно +30.8 +15.5 40 +33 +49 душно 1009.0 1007.2
12 15.07 СЗ 5 10 км ясно +34.6 +12.7 27 +35 +43 очень
жарко
1008.0 1006.2
15 15.07 СЗ 3 10 км ясно +36.6 +13.3 25 +37 +39 очень
жарко
1006.0 1004.2
18 15.07 С 3 10 км ясно +32.4 +16.9 40 +36 +36 очень
душно
1009.0 1007.2 +36.7
21 15.07 СЗ 2 10 км ясно +29.7 +17.5 48 +34 +34 очень
душно
1010.0 1008.2
00 16.07 С 2 10 км ясно +27.6 +18.2 57 +32 +32 очень
душно
1010.0 1008.2
03 16.07 С 2 10 км ясно +26.0 +18.7 64 +31 +31 очень
душно
1010.0 1008.2
06 16.07 С 2 10 км ясно +29.4 +17.0 47 +33 +42 душно 1010.0 1008.2 +25.9
12 16.07 З 5 10 км ясно +31.2 +20.8 54 +38 +47 очень
душно
1006.5 1004.7
15 16.07 З 2 10 км ясно +36.4 +15.2 28 +38 +41 очень
душно
1006.0 1004.2
18 16.07 З 1 10 км ясно +32.1 +18.4 44 +37 +37 очень
душно
1007.0 1005.2 +38.0
21 16.07 З 1 10 км ясно +29.0 +19.2 55 +34 +34 очень
душно
1008.0 1006.2
00 17.07 В 2 10 км ясно +27.7 +8.4 30 +28 +28 жарко 1006.0 1004.2
03 17.07 В 3 10 км ясно +29.3 +7.4 25 +28 +28 жарко 1006.0 1004.2
06 17.07 ЮВ 5 10 км ясно +33.8 +15.9 34 +36 +41 очень
душно
1006.0 1004.2 +27.7
09 17.07 ЮВ 6 10 км 8/0
[Cs]
+38.2 +8.5 17 +36 +44 очень
жарко
1005.0 1003.2
12 17.07 Ю 3 10 км 10/0
[Cs]
+39.6 +14.4 23 +40 +52 опасность
солнечного
удара
1003.0 1001.2
15 17.07 Ю 2 10 км 10/0
[Cs]
+42.0 +13.5 19 +42 +44 опасность
перегрева
1002.0 1000.3

 

Местоположение метеостанции Рас-Седр (Египет): широта 29.58 долгота 32.72 высота над уровнем моря 16 м.

В архиве по умолчанию представлена погода в Рас-Седре за последнюю неделю. Архивные данные за месяц целиком и за предыдущие месяцы, начиная с января 2011 года, Вы можете получить, выбрав интересующий диапазон дат из раскрывающегося списка и нажав кнопку "Ввод!".


*Определитесь, кто Вы:
робот инопланетянин человек

Внимание! Время в таблицах - всемирное. Для получения местного времени необходимо прибавить поправку, которая равна 2 ч.

Смотрите также архив погоды в соседних городах и на ближайших метеорологических станциях:

Погода в Абу Редис (Египет) (88 км)
Погода в Нехеле (Египет) (105 км)
Погода в Исмаилии (Египет) (122 км)
Погода в Каире (Египет) (141 км)
Погода в Эль-Торе (Египет) (174 км)
Погода в Порт-Саиде (Египет) (195 км)
Погода в Эль-Арише (Египет) (197 км)
Погода в Эйлате (Израиль) (216 км)
Погода в Акаба (Иордания) (221 км)
Погода в Неот-Смадаре (Израиль) (228 км)

Пояснения к столбцам:

Ветер - указаны скорость ветра в м/с - средняя за 10 мин, порывы в срок и между сроками (в фигурных скобках) и направление, откуда дует ветер: С - северный, СВ - северо-восточный, В - восточный, ЮВ - юго-восточный, Ю - южный, ЮЗ - юго-западный, З - западный, СЗ - северо-западный.
Видимость - горизонтальная дальность видимости в метрах или километрах. При видимости от 1 до 10 км при отсутствии осадков обычно наблюдается дымка, при ухудшении видимости до 1 км и менее - туман. В сухую погоду видимость может ухудшаться дымом, пылью или мглою.
Явления - указаны атмосферные явления, наблюдавшиеся в срок или в последний час перед сроком; фигурными скобками обозначены явления, наблюдавшиеся между сроками (за 1-3 часа до срока); квадратными скобками обозначены град или гололедные отложения с указанием их диаметра в мм.
Облачность - указаны через наклонную черту общая и нижняя облачность в баллах и высота нижней границы облаков в метрах; квадратными скобками обозначены формы облаков: Ci - перистые, Cs - перисто-слоистые, Cc - перисто-кучевые, Ac - высококучевые, As - высокослоистые, Sc - слоисто-кучевые, Ns - слоисто-дождевые, Cu - кучевые, Cb - кучево-дождевые. Подробнее классификацию облаков см. в Атласе облаков (PDF).
T - Температура воздуха - температура, измеренная на высоте 2 м над землей.
Td - Температура точки росы - температура, при понижении до которой содержащийся в воздухе водяной пар достигнет насыщения.
f - Относительная влажность воздуха - влажноcть воздуха, измеренная на высоте 2 м над землей.
Te - Эффективная температура - температура, которую ощущает одетый по сезону человек в тени. Характеристика душности погоды. При расчете учитывается влияние влажности воздуха и скорости ветра на теплоощущения человека.
Tes - Эффективная температура на солнце - температура, которую ощущает человек, с поправкой на солнечный нагрев. Характеристика знойности погоды. Зависит от высоты солнца над горизонтом, облачности и скорости ветра. Ночью, в пасмурную погоду, а также при ветре 12 м/с и более поправка равна нулю.
P - Атмосферное давление - приведенное к уровню моря атмосферное давление.
Po - Атмосферное давление - измеренное на уровне метеостанции атмосферное давление.
Tmin - Минимальная температура - минимум температуры воздуха на высоте 2 м над землей.
Tmax - Максимальная температура - максимум температуры воздуха на высоте 2 м над землей.
R - Количество осадков - Количество выпавших осадков за период времени, мм. При наведении курсора мыши на число - период времени, за который выпало указанное количество осадков.
R24 - Количество осадков - Количество выпавших осадков за 24 часа, мм.
S - Снежный покров - Высота снежного покрова, см. При наведении курсора мыши на число - состояние снежного покрова и степень покрытия местности в баллах.